Flag for U.S.A. Weather past 2 weeks in Lexington-Fayette, Kentucky, U.S.A.

Now
72 °F

Sunny.


Feels Like: 77 °F
Forecast: 43 / 70 °F
Wind: 10 mph from East

Location: Blue Grass Airport

Current Time: Sep 23, 2014 at 3:19:32 PM

Latest Report: Sep 23, 2014 at 2:54 PM


Visibility: 10 mi

Pressure: 30.29 "Hg

Humidity: 38%

Dew point: 45 °F

Location of Lexington-FayetteLocation

Historic Weather in Lexington-Fayette — Graph

°F

Lexington-Fayette temperature yesterday

Maximum temperature yesterday: 68 °F (at 4:54 PM)
Minimum temperature yesterday: 50 °F (at 6:54 AM)
Average temperature yesterday: 58 °F

Past Weeks' High & Low Weather Summary

 TemperatureHumidityPressure
High84 °F (Sep 10, 3:54 PM)94% (Sep 9, 4:54 AM)30.33 "Hg (Sep 9, 4:54 AM)
Low45 °F (Sep 23, 6:54 AM)29% (Sep 21, 4:54 PM)29.83 "Hg (Sep 10, 7:54 PM)
Average66 °F72%30.08 "Hg
* Reported Sep 8 1:54 PM — Sep 23 1:54 PM, Lexington-Fayette, Weather by CustomWeather, © 2014

Note: Actual official high and low records may vary slightly from our data, if they occured in-between our weather recording intervals... More about our weather records

Advertising

Lexington-Fayette weather history for previous 24 hours

 ConditionsComfort  
Time TempWeatherWind HumidityBarometerVisibility
1:54 PM
Sep 23
71 °FSunny.12 mph41%30.31 "Hg10 mi
12:54 PM69 °FSunny.7 mph42%30.32 "Hg10 mi
11:54 AM67 °FSunny.10 mph45%30.33 "Hg10 mi
10:54 AM64 °FSunny.12 mph50%30.33 "Hg10 mi
9:54 AM61 °FSunny.6 mph62%30.32 "Hg10 mi
8:54 AM54 °FSunny.5 mph74%30.31 "Hg10 mi
7:54 AM47 °FClear.6 mph80%30.30 "Hg10 mi
6:54 AM45 °FClear.3 mph82%30.29 "Hg10 mi
5:54 AM49 °FClear.5 mph77%30.28 "Hg10 mi
4:54 AM48 °FClear.6 mph77%30.27 "Hg10 mi
3:54 AM48 °FClear.6 mph80%30.27 "Hg10 mi
2:54 AM49 °FClear.6 mph77%30.27 "Hg10 mi
1:54 AM50 °FClear.7 mph77%30.27 "Hg10 mi
12:54 AM51 °FClear.6 mph74%30.27 "Hg10 mi
11:54 PM
Sep 22
52 °FClear.5 mph75%30.27 "Hg10 mi
10:54 PM54 °FClear.6 mph69%30.26 "Hg10 mi
9:54 PM56 °FClear.6 mph65%30.24 "Hg10 mi
8:54 PM57 °FClear.6 mph64%30.23 "Hg10 mi
7:54 PM60 °FSunny.8 mph58%30.21 "Hg10 mi
6:54 PM65 °FSunny.6 mph47%30.20 "Hg10 mi
5:54 PM68 °FSunny.3 mph45%30.19 "Hg10 mi
4:54 PM68 °FSunny.6 mph44%30.20 "Hg10 mi
3:54 PM67 °FSunny.6 mph44%30.19 "Hg10 mi
Weather by CustomWeather, © 2014

See weather overviewHow to use our weather pages